Time,TemperatureF,DewpointF,PressureIn,WindDirection,WindDirectionDegrees,WindSpeedMPH,WindSpeedGustMPH,Humidity,HourlyPrecipIn,Conditions,Clouds,dailyrainin,SoftwareType,DateUTC
2013-07-31 00:00:00,67.9,64.5,30.01,ESE,112,0.0,0.0,89,0.00,,---,0.00,VWS V14.01,2013-07-31 04:00:00,
2013-07-31 00:15:00,67.9,64.5,29.99,ESE,112,0.0,0.0,89,0.00,,---,0.00,VWS V14.01,2013-07-31 04:15:00,
2013-07-31 00:30:00,67.8,64.4,29.99,ESE,112,0.0,0.0,89,0.00,,---,0.00,VWS V14.01,2013-07-31 04:30:00,
2013-07-31 00:45:00,67.6,64.6,29.99,ESE,112,0.0,0.0,90,0.00,,---,0.00,VWS V14.01,2013-07-31 04:45:00,
2013-07-31 01:00:00,67.4,64.4,29.99,ESE,112,0.0,0.0,90,0.00,,---,0.00,VWS V14.01,2013-07-31 05:00:00,
2013-07-31 01:15:00,67.4,64.4,29.99,ESE,112,0.0,0.0,90,0.02,,---,0.02,VWS V14.01,2013-07-31 05:15:00,
2013-07-31 01:30:00,67.4,64.7,29.98,ESE,112,0.0,0.0,91,0.10,,---,0.10,VWS V14.01,2013-07-31 05:30:00,
2013-07-31 01:45:00,67.3,64.6,29.98,ESE,112,0.0,0.0,91,0.10,,---,0.10,VWS V14.01,2013-07-31 05:45:00,
2013-07-31 02:00:00,67.1,64.7,29.97,ESE,112,0.0,0.0,92,0.11,,---,0.11,VWS V14.01,2013-07-31 06:00:00,
2013-07-31 02:15:00,67.1,64.7,29.97,ESE,112,0.0,0.0,92,0.12,,---,0.12,VWS V14.01,2013-07-31 06:15:00,
2013-07-31 02:30:00,67.1,64.7,29.97,ESE,112,0.0,0.0,92,0.11,,---,0.13,VWS V14.01,2013-07-31 06:30:00,
2013-07-31 02:45:00,66.9,64.8,29.96,ESE,112,0.0,0.0,93,0.03,,---,0.13,VWS V14.01,2013-07-31 06:45:00,
2013-07-31 03:00:00,66.8,64.7,29.96,ESE,112,0.0,0.0,93,0.03,,---,0.13,VWS V14.01,2013-07-31 07:00:00,
2013-07-31 03:15:00,66.6,64.5,29.95,ESE,112,0.0,0.0,93,0.02,,---,0.13,VWS V14.01,2013-07-31 07:15:00,
2013-07-31 03:30:00,65.8,63.4,29.96,ESE,112,0.0,0.0,92,0.01,,---,0.13,VWS V14.01,2013-07-31 07:30:00,
2013-07-31 03:45:00,65.2,62.8,29.96,ESE,112,0.0,0.0,92,0.00,,---,0.13,VWS V14.01,2013-07-31 07:45:00,
2013-07-31 04:00:00,65.0,62.6,29.96,ESE,112,0.0,0.0,92,0.00,,---,0.13,VWS V14.01,2013-07-31 08:00:00,
2013-07-31 04:15:00,64.7,62.3,29.96,ESE,112,0.0,0.0,92,0.01,,---,0.14,VWS V14.01,2013-07-31 08:15:00,
2013-07-31 04:30:00,64.5,62.4,29.96,ESE,112,0.0,0.0,93,0.01,,---,0.14,VWS V14.01,2013-07-31 08:30:00,
2013-07-31 04:45:00,64.3,62.2,29.97,ESE,112,0.0,0.0,93,0.01,,---,0.14,VWS V14.01,2013-07-31 08:45:00,
2013-07-31 05:00:00,64.3,62.2,29.97,ESE,112,0.0,0.0,93,0.14,,---,0.27,VWS V14.01,2013-07-31 09:00:00,
2013-07-31 05:15:00,64.3,62.5,29.98,ESE,112,0.0,0.0,94,0.21,,---,0.34,VWS V14.01,2013-07-31 09:15:00,
2013-07-31 05:30:00,64.2,62.4,29.97,ESE,112,0.0,0.0,94,0.42,,---,0.56,VWS V14.01,2013-07-31 09:30:00,
2013-07-31 05:45:00,64.2,62.4,29.98,ESE,112,0.0,0.0,94,0.53,,---,0.67,VWS V14.01,2013-07-31 09:45:00,
2013-07-31 06:00:00,64.2,62.4,29.97,ESE,112,0.0,0.0,94,0.57,,---,0.71,VWS V14.01,2013-07-31 10:00:00,
2013-07-31 06:15:00,63.9,62.1,29.96,ESE,112,0.0,0.0,94,0.46,,---,0.73,VWS V14.01,2013-07-31 10:15:00,
2013-07-31 06:30:00,63.4,61.7,29.97,ESE,112,0.0,0.0,94,0.39,,---,0.73,VWS V14.01,2013-07-31 10:30:00,
2013-07-31 06:45:00,63.2,61.5,29.98,ESE,112,0.0,0.0,94,0.17,,---,0.73,VWS V14.01,2013-07-31 10:45:00,
2013-07-31 07:00:00,63.1,61.7,29.98,ESE,112,0.0,0.0,95,0.06,,---,0.73,VWS V14.01,2013-07-31 11:00:00,
2013-07-31 07:15:00,63.1,61.7,29.98,ESE,112,0.0,0.0,95,0.02,,---,0.73,VWS V14.01,2013-07-31 11:15:00,
2013-07-31 07:30:00,63.2,61.8,29.98,ESE,112,0.0,0.0,95,0.00,,---,0.73,VWS V14.01,2013-07-31 11:30:00,
2013-07-31 07:45:00,63.2,61.8,29.98,ESE,112,0.0,0.0,95,0.01,,---,0.74,VWS V14.01,2013-07-31 11:45:00,
2013-07-31 08:00:00,63.5,62.0,29.98,ESE,112,0.0,0.0,95,0.18,,---,0.91,VWS V14.01,2013-07-31 12:00:00,
2013-07-31 08:15:00,63.7,62.2,29.99,ESE,112,0.0,0.0,95,0.18,,---,0.91,VWS V14.01,2013-07-31 12:15:00,
2013-07-31 08:30:00,63.9,62.4,30.00,ESE,112,0.0,0.0,95,0.19,,---,0.92,VWS V14.01,2013-07-31 12:30:00,
2013-07-31 08:45:00,64.2,63.0,29.99,ESE,112,0.0,0.0,96,0.19,,---,0.92,VWS V14.01,2013-07-31 12:45:00,
2013-07-31 09:00:00,64.2,62.7,29.99,ESE,112,0.0,0.0,95,0.18,,---,0.92,VWS V14.01,2013-07-31 13:00:00,
2013-07-31 09:15:00,64.3,63.1,29.99,ESE,112,0.0,0.0,96,0.01,,---,0.92,VWS V14.01,2013-07-31 13:15:00,
2013-07-31 09:30:00,64.8,63.6,29.99,ESE,112,0.0,0.0,96,0.01,,---,0.92,VWS V14.01,2013-07-31 13:30:00,
2013-07-31 09:45:00,65.2,64.0,29.99,ESE,112,0.0,0.0,96,0.00,,---,0.92,VWS V14.01,2013-07-31 13:45:00,
2013-07-31 10:00:00,65.6,64.4,29.98,ESE,112,0.0,0.0,96,0.00,,---,0.92,VWS V14.01,2013-07-31 14:00:00,
2013-07-31 10:15:00,65.8,64.6,29.99,ESE,112,0.0,0.0,96,0.00,,---,0.92,VWS V14.01,2013-07-31 14:15:00,
2013-07-31 10:30:00,66.1,64.9,29.98,ESE,112,0.0,0.0,96,0.00,,---,0.92,VWS V14.01,2013-07-31 14:30:00,
2013-07-31 10:45:00,66.6,65.4,29.98,ESE,112,0.0,0.0,96,0.00,,---,0.92,VWS V14.01,2013-07-31 14:45:00,
2013-07-31 11:00:00,67.1,65.9,29.97,ESE,112,0.0,0.0,96,0.00,,---,0.92,VWS V14.01,2013-07-31 15:00:00,
2013-07-31 11:15:00,67.1,65.6,29.98,ESE,112,0.0,0.0,95,0.00,,---,0.92,VWS V14.01,2013-07-31 15:15:00,
2013-07-31 11:30:00,67.4,65.9,29.97,ESE,112,0.0,0.0,95,0.00,,---,0.92,VWS V14.01,2013-07-31 15:30:00,
2013-07-31 11:45:00,67.8,66.3,29.96,ESE,112,0.0,0.0,95,0.00,,---,0.92,VWS V14.01,2013-07-31 15:45:00,
2013-07-31 12:00:00,68.3,66.8,29.96,ESE,112,0.0,0.0,95,0.00,,---,0.92,VWS V14.01,2013-07-31 16:00:00,
2013-07-31 12:15:00,69.1,67.3,29.95,ESE,112,0.0,0.0,94,0.30,,---,1.22,VWS V14.01,2013-07-31 16:15:00,
2013-07-31 12:30:00,69.4,67.3,29.96,ESE,112,0.0,0.0,93,0.30,,---,1.22,VWS V14.01,2013-07-31 16:30:00,
2013-07-31 12:45:00,69.9,67.5,29.95,ESE,112,0.0,0.0,92,0.30,,---,1.22,VWS V14.01,2013-07-31 16:45:00,
2013-07-31 13:00:00,69.6,66.9,29.95,ESE,112,0.0,0.0,91,0.30,,---,1.22,VWS V14.01,2013-07-31 17:00:00,
2013-07-31 13:15:00,69.4,66.3,29.95,ESE,112,0.0,0.0,90,0.30,,---,1.22,VWS V14.01,2013-07-31 17:15:00,
2013-07-31 13:30:00,69.3,66.6,29.95,ESE,112,0.0,0.0,91,0.00,,---,1.22,VWS V14.01,2013-07-31 17:30:00,
2013-07-31 13:45:00,69.3,66.6,29.94,ESE,112,0.0,0.0,91,0.00,,---,1.22,VWS V14.01,2013-07-31 17:45:00,
2013-07-31 14:00:00,69.4,66.7,29.93,ESE,112,0.0,0.0,91,0.00,,---,1.22,VWS V14.01,2013-07-31 18:00:00,
2013-07-31 14:15:00,69.8,67.1,29.93,ESE,112,0.0,0.0,91,0.00,,---,1.22,VWS V14.01,2013-07-31 18:15:00,
2013-07-31 14:30:00,69.8,67.1,29.92,ESE,112,0.0,0.0,91,0.00,,---,1.22,VWS V14.01,2013-07-31 18:30:00,
2013-07-31 14:45:00,69.8,67.1,29.91,ESE,112,0.0,0.0,91,0.00,,---,1.22,VWS V14.01,2013-07-31 18:45:00,
2013-07-31 15:00:00,69.9,67.5,29.91,ESE,112,0.0,0.0,92,0.00,,---,1.22,VWS V14.01,2013-07-31 19:00:00,
2013-07-31 15:15:00,70.1,67.7,29.90,ESE,112,0.0,0.0,92,0.00,,---,1.22,VWS V14.01,2013-07-31 19:15:00,
2013-07-31 15:30:00,70.6,67.8,29.90,ESE,112,0.0,0.0,91,0.00,,---,1.22,VWS V14.01,2013-07-31 19:30:00,
2013-07-31 15:45:00,70.8,68.1,29.89,ESE,112,0.0,0.0,91,0.00,,---,1.22,VWS V14.01,2013-07-31 19:45:00,
2013-07-31 16:00:00,71.3,68.5,29.88,ESE,112,0.0,0.0,91,0.00,,---,1.22,VWS V14.01,2013-07-31 20:00:00,
2013-07-31 16:15:00,71.1,67.0,29.88,ESE,112,0.0,0.0,87,0.00,,---,1.22,VWS V14.01,2013-07-31 20:15:00,
2013-07-31 16:30:00,71.5,67.8,29.87,ESE,112,0.0,0.0,88,0.00,,---,1.22,VWS V14.01,2013-07-31 20:30:00,
2013-07-31 16:45:00,71.5,67.8,29.86,ESE,112,0.0,0.0,88,0.00,,---,1.22,VWS V14.01,2013-07-31 20:45:00,
2013-07-31 17:00:00,71.1,66.7,29.86,ESE,112,0.0,1.0,86,0.00,,---,1.22,VWS V14.01,2013-07-31 21:00:00,
2013-07-31 17:15:00,71.6,67.2,29.85,ESE,112,0.0,0.0,86,0.00,,---,1.22,VWS V14.01,2013-07-31 21:15:00,
2013-07-31 17:30:00,72.1,67.3,29.84,ESE,112,0.0,0.0,85,0.00,,---,1.22,VWS V14.01,2013-07-31 21:30:00,
2013-07-31 17:45:00,72.3,66.8,29.84,ESE,112,0.0,0.0,83,0.00,,---,1.22,VWS V14.01,2013-07-31 21:45:00,
2013-07-31 18:00:00,72.7,67.6,29.83,ESE,112,0.0,0.0,84,0.00,,---,1.22,VWS V14.01,2013-07-31 22:00:00,
2013-07-31 18:15:00,72.8,67.7,29.83,ESE,112,0.0,0.0,84,0.00,,---,1.22,VWS V14.01,2013-07-31 22:15:00,
2013-07-31 18:30:00,72.7,68.3,29.82,ESE,112,0.0,0.0,86,0.00,,---,1.22,VWS V14.01,2013-07-31 22:30:00,
2013-07-31 18:45:00,72.5,68.1,29.82,ESE,112,0.0,0.0,86,0.00,,---,1.22,VWS V14.01,2013-07-31 22:45:00,
2013-07-31 19:00:00,72.8,68.4,29.82,ESE,112,0.0,0.0,86,0.00,,---,1.22,VWS V14.01,2013-07-31 23:00:00,
2013-07-31 19:15:00,72.5,68.1,29.82,ESE,112,0.0,0.0,86,0.00,,---,1.22,VWS V14.01,2013-07-31 23:15:00,
2013-07-31 19:30:00,72.5,68.1,29.82,ESE,112,0.0,0.0,86,0.00,,---,1.22,VWS V14.01,2013-07-31 23:30:00,
2013-07-31 19:45:00,71.6,67.2,29.83,ESE,112,0.0,0.0,86,0.00,,---,1.22,VWS V14.01,2013-07-31 23:45:00,
2013-07-31 20:00:00,70.4,66.7,29.84,ESE,112,0.0,0.0,88,0.00,,---,1.22,VWS V14.01,2013-08-01 00:00:00,
2013-07-31 20:15:00,70.1,66.7,29.85,ESE,112,0.0,0.0,89,0.00,,---,1.22,VWS V14.01,2013-08-01 00:15:00,
2013-07-31 20:30:00,69.9,66.5,29.85,ESE,112,0.0,0.0,89,0.00,,---,1.22,VWS V14.01,2013-08-01 00:30:00,
2013-07-31 20:45:00,69.8,66.7,29.85,ESE,112,0.0,0.0,90,0.00,,---,1.22,VWS V14.01,2013-08-01 00:45:00,
2013-07-31 21:00:00,69.8,66.7,29.85,ESE,112,0.0,0.0,90,0.00,,---,1.22,VWS V14.01,2013-08-01 01:00:00,
2013-07-31 21:15:00,69.6,66.5,29.84,ESE,112,0.0,0.0,90,0.00,,---,1.22,VWS V14.01,2013-08-01 01:15:00,
2013-07-31 21:30:00,69.6,66.2,29.84,ESE,112,0.0,0.0,89,0.00,,---,1.22,VWS V14.01,2013-08-01 01:30:00,
2013-07-31 21:45:00,69.6,66.2,29.84,ESE,112,0.0,0.0,89,0.00,,---,1.22,VWS V14.01,2013-08-01 01:45:00,
2013-07-31 22:00:00,69.6,66.2,29.84,ESE,112,0.0,0.0,89,0.02,,---,1.24,VWS V14.01,2013-08-01 02:00:00,
2013-07-31 22:15:00,69.3,65.9,29.84,ESE,112,0.0,0.0,89,0.02,,---,1.24,VWS V14.01,2013-08-01 02:15:00,
2013-07-31 22:30:00,68.9,65.5,29.84,ESE,112,0.0,0.0,89,0.02,,---,1.24,VWS V14.01,2013-08-01 02:30:00,
2013-07-31 22:45:00,68.9,65.8,29.83,ESE,112,0.0,0.0,90,0.03,,---,1.25,VWS V14.01,2013-08-01 02:45:00,
2013-07-31 23:00:00,68.6,65.9,29.84,ESE,112,0.0,0.0,91,0.03,,---,1.25,VWS V14.01,2013-08-01 03:00:00,
2013-07-31 23:15:00,68.3,65.6,29.83,ESE,112,0.0,0.0,91,0.01,,---,1.25,VWS V14.01,2013-08-01 03:15:00,
2013-07-31 23:30:00,68.1,65.7,29.83,ESE,112,0.0,0.0,92,0.01,,---,1.25,VWS V14.01,2013-08-01 03:30:00,
2013-07-31 23:45:00,67.9,65.5,29.82,ESE,112,0.0,0.0,92,0.01,,---,1.25,VWS V14.01,2013-08-01 03:45:00,